Eko 4 — SVAR8 — position and weather

sailwx.info

Track history (hours):
 
Tides and Currents Weather Stations Pressure Air Temp Water Temp Dewpoint Dewpoint Depression Visibility Wind Speed Wind Dir Waves Ship Positions

Eko 4

Last reported at 2014-Jul-29 14:32 UTC. Time now 2014-Jul-29 14:46 UTC.
Position N 37°55' E 023°05'.

Length 88 m; draft 4.8 m.

Type: Ship (hazmat cat A). MMSI: 240912000.

Date/timePositionNaut miles runAvg speedWind from/ knotsBaromVisibWave heightAir tempDewpointWater temp
2014-Jul-29 14:32N 37°55' E 023°05'0 0.0
2014-Jul-29 08:26N 37°55' E 023°05'0 0.0
2014-Jul-29 06:25N 37°55' E 023°05'11 1.0
2014-Jul-28 19:27N 37°52' E 023°18'1011.2
2014-Jul-28 18:33N 37°50' E 023°31'9 8.7
2014-Jul-28 17:33N 37°47' E 023°41'2110.4
2014-Jul-28 15:30N 37°34' E 024°03'1110.5
2014-Jul-28 14:30N 37°30' E 024°15'1010.2
2014-Jul-28 13:33N 37°31' E 024°27'1210.9
2014-Jul-28 12:30N 37°26' E 024°39'1111.4
2014-Jul-28 11:32N 37°20' E 024°51'1010.6
2014-Jul-28 10:33N 37°18' E 025°04'1111.1
2014-Jul-28 09:33N 37°17' E 025°18'1211.8
2014-Jul-28 08:33N 37°15' E 025°33'1111.1
2014-Jul-28 07:33N 37°11' E 025°46'1110.7
2014-Jul-28 06:33N 37°06' E 025°58'1110.9
2014-Jul-28 05:33N 36°60' E 026°09'1110.7
2014-Jul-28 04:33N 36°54' E 026°19'1110.9
2014-Jul-28 03:33N 36°47' E 026°31'1210.7
2014-Jul-28 02:28N 36°42' E 026°43'5310.7
2014-Jul-27 21:33N 36°29' E 027°47'77 2.1
2014-Jul-26 08:17N 37°05' E 026°23'7 9.9
2014-Jul-26 07:33N 37°08' E 026°14'10 9.9
2014-Jul-26 06:33N 37°10' E 026°02'10 9.8
2014-Jul-26 05:33N 37°11' E 025°50'10 9.7
2014-Jul-26 04:33N 37°13' E 025°38'9 9.0
2014-Jul-26 03:33N 37°15' E 025°27'9 9.3
2014-Jul-26 02:33N 37°17' E 025°15'10 9.9
2014-Jul-26 01:33N 37°18' E 025°03'10 9.9
2014-Jul-26 00:33N 37°20' E 024°51'10 9.8
2014-Jul-25 23:33N 37°25' E 024°40'10 9.8
2014-Jul-25 22:33N 37°30' E 024°30'31 9.9
2014-Jul-25 19:27N 37°36' E 023°52'910.1
2014-Jul-25 18:33N 37°41' E 023°42'1010.1
2014-Jul-25 17:33N 37°50' E 023°36'1010.1
2014-Jul-25 16:33N 37°51' E 023°24'1010.4
2014-Jul-25 15:33N 37°54' E 023°11'5 0.2
2014-Jul-24 18:16N 37°55' E 023°05'2 3.1
2014-Jul-24 17:29N 37°54' E 023°08'1010.8
2014-Jul-24 16:32N 37°52' E 023°21'9 9.7
2014-Jul-24 15:33N 37°54' E 023°33'0 0.1
2014-Jul-24 14:30N 37°54' E 023°33'0 0.0
2014-Jul-24 13:30N 37°54' E 023°33'0 0.1
2014-Jul-24 12:30N 37°54' E 023°33'6 6.1
2014-Jul-24 11:33N 37°51' E 023°39'1110.9
2014-Jul-24 10:33N 37°41' E 023°45'2510.8
2014-Jul-24 08:17N 37°31' E 024°13'911.0
2014-Jul-24 07:30N 37°30' E 024°24'1010.8
2014-Jul-24 06:33N 37°27' E 024°36'1211.7
2014-Jul-24 05:33N 37°21' E 024°48'1111.3
2014-Jul-24 04:33N 37°19' E 025°02'1111.2
2014-Jul-24 03:33N 37°17' E 025°16'1111.0
2014-Jul-24 02:33N 37°15' E 025°30'1111.0
2014-Jul-24 01:33N 37°13' E 025°44'1110.9
2014-Jul-24 00:33N 37°10' E 025°57'1010.4
2014-Jul-23 23:33N 37°07' E 026°09'1110.7
2014-Jul-23 22:33N 37°05' E 026°22'64 3.4
2014-Jul-23 03:29N 36°30' E 027°30'36 1.5
2014-Jul-22 03:31N 36°40' E 026°47'1110.7
2014-Jul-22 02:31N 36°46' E 026°35'2211.0
2014-Jul-22 00:33N 36°57' E 026°13'1110.9
2014-Jul-21 23:33N 37°04' E 026°02'1110.9
2014-Jul-21 22:31N 37°10' E 025°50'1110.9
2014-Jul-21 21:33N 37°13' E 025°38'1010.3
2014-Jul-21 20:33N 37°15' E 025°25'210.0
2014-Jul-21 20:18N 37°16' E 025°22'7 9.9
2014-Jul-21 19:33N 37°17' E 025°13'10 9.8
2014-Jul-21 18:33N 37°19' E 025°01'10 9.6
2014-Jul-21 17:33N 37°21' E 024°49'1010.1
2014-Jul-21 16:31N 37°26' E 024°37'9 9.7
2014-Jul-21 15:33N 37°31' E 024°27'10 9.3
2014-Jul-21 14:30N 37°30' E 024°15'2010.2
2014-Jul-21 12:31N 37°37' E 023°51'10 9.8
2014-Jul-21 11:32N 37°42' E 023°41'1010.2
2014-Jul-21 10:34N 37°51' E 023°36'6 0.3
2014-Jul-20 12:33N 37°57' E 023°36'9 9.1
2014-Jul-20 11:32N 37°48' E 023°41'33 9.6
2014-Jul-20 08:07N 37°24' E 024°08'5 8.4
2014-Jul-20 07:30N 37°20' E 024°12'9 9.0
2014-Jul-20 06:31N 37°16' E 024°22'9 9.6
2014-Jul-20 05:33N 37°14' E 024°33'9 9.1
2014-Jul-20 04:33N 37°07' E 024°41'10 9.7
2014-Jul-20 03:33N 37°00' E 024°50'10 9.5
2014-Jul-20 02:32N 36°53' E 024°59'1010.4
2014-Jul-20 01:32N 36°51' E 025°11'1110.5
2014-Jul-20 00:32N 36°48' E 025°24'1010.0
2014-Jul-19 23:33N 36°46' E 025°36'1010.3
2014-Jul-19 22:33N 36°45' E 025°48'1010.3
2014-Jul-19 21:32N 36°45' E 026°01'10 9.6
2014-Jul-19 20:33N 36°46' E 026°13'  
Track history (hours):
 
Tides and Currents Weather Stations Pressure Air Temp Water Temp Dewpoint Dewpoint Depression Visibility Wind Speed Wind Dir Waves Ship Positions

Eko 4

Last reported at 2014-Jul-29 14:32 UTC. Time now 2014-Jul-29 14:46 UTC.
Position N 37°55' E 023°05'.

Length 88 m; draft 4.8 m.

Type: Ship (hazmat cat A). MMSI: 240912000.

Date/timePositionNaut miles runAvg speedWind from/ knotsBaromVisibWave heightAir tempDewpointWater temp
2014-Jul-29 14:32N 37°55' E 023°05'0 0.0
2014-Jul-29 08:26N 37°55' E 023°05'0 0.0
2014-Jul-29 06:25N 37°55' E 023°05'11 1.0
2014-Jul-28 19:27N 37°52' E 023°18'1011.2
2014-Jul-28 18:33N 37°50' E 023°31'9 8.7
2014-Jul-28 17:33N 37°47' E 023°41'2110.4
2014-Jul-28 15:30N 37°34' E 024°03'1110.5
2014-Jul-28 14:30N 37°30' E 024°15'1010.2
2014-Jul-28 13:33N 37°31' E 024°27'1210.9
2014-Jul-28 12:30N 37°26' E 024°39'1111.4
2014-Jul-28 11:32N 37°20' E 024°51'1010.6
2014-Jul-28 10:33N 37°18' E 025°04'1111.1
2014-Jul-28 09:33N 37°17' E 025°18'1211.8
2014-Jul-28 08:33N 37°15' E 025°33'1111.1
2014-Jul-28 07:33N 37°11' E 025°46'1110.7
2014-Jul-28 06:33N 37°06' E 025°58'1110.9
2014-Jul-28 05:33N 36°60' E 026°09'1110.7
2014-Jul-28 04:33N 36°54' E 026°19'1110.9
2014-Jul-28 03:33N 36°47' E 026°31'1210.7
2014-Jul-28 02:28N 36°42' E 026°43'5310.7
2014-Jul-27 21:33N 36°29' E 027°47'77 2.1
2014-Jul-26 08:17N 37°05' E 026°23'7 9.9
2014-Jul-26 07:33N 37°08' E 026°14'10 9.9
2014-Jul-26 06:33N 37°10' E 026°02'10 9.8
2014-Jul-26 05:33N 37°11' E 025°50'10 9.7
2014-Jul-26 04:33N 37°13' E 025°38'9 9.0
2014-Jul-26 03:33N 37°15' E 025°27'9 9.3
2014-Jul-26 02:33N 37°17' E 025°15'10 9.9
2014-Jul-26 01:33N 37°18' E 025°03'10 9.9
2014-Jul-26 00:33N 37°20' E 024°51'10 9.8
2014-Jul-25 23:33N 37°25' E 024°40'10 9.8
2014-Jul-25 22:33N 37°30' E 024°30'31 9.9
2014-Jul-25 19:27N 37°36' E 023°52'910.1
2014-Jul-25 18:33N 37°41' E 023°42'1010.1
2014-Jul-25 17:33N 37°50' E 023°36'1010.1
2014-Jul-25 16:33N 37°51' E 023°24'1010.4
2014-Jul-25 15:33N 37°54' E 023°11'5 0.2
2014-Jul-24 18:16N 37°55' E 023°05'2 3.1
2014-Jul-24 17:29N 37°54' E 023°08'1010.8
2014-Jul-24 16:32N 37°52' E 023°21'9 9.7
2014-Jul-24 15:33N 37°54' E 023°33'0 0.1
2014-Jul-24 14:30N 37°54' E 023°33'0 0.0
2014-Jul-24 13:30N 37°54' E 023°33'0 0.1
2014-Jul-24 12:30N 37°54' E 023°33'6 6.1
2014-Jul-24 11:33N 37°51' E 023°39'1110.9
2014-Jul-24 10:33N 37°41' E 023°45'2510.8
2014-Jul-24 08:17N 37°31' E 024°13'911.0
2014-Jul-24 07:30N 37°30' E 024°24'1010.8
2014-Jul-24 06:33N 37°27' E 024°36'1211.7
2014-Jul-24 05:33N 37°21' E 024°48'1111.3
2014-Jul-24 04:33N 37°19' E 025°02'1111.2
2014-Jul-24 03:33N 37°17' E 025°16'1111.0
2014-Jul-24 02:33N 37°15' E 025°30'1111.0
2014-Jul-24 01:33N 37°13' E 025°44'1110.9
2014-Jul-24 00:33N 37°10' E 025°57'1010.4
2014-Jul-23 23:33N 37°07' E 026°09'1110.7
2014-Jul-23 22:33N 37°05' E 026°22'64 3.4
2014-Jul-23 03:29N 36°30' E 027°30'36 1.5
2014-Jul-22 03:31N 36°40' E 026°47'1110.7
2014-Jul-22 02:31N 36°46' E 026°35'2211.0
2014-Jul-22 00:33N 36°57' E 026°13'1110.9
2014-Jul-21 23:33N 37°04' E 026°02'1110.9
2014-Jul-21 22:31N 37°10' E 025°50'1110.9
2014-Jul-21 21:33N 37°13' E 025°38'1010.3
2014-Jul-21 20:33N 37°15' E 025°25'210.0
2014-Jul-21 20:18N 37°16' E 025°22'7 9.9
2014-Jul-21 19:33N 37°17' E 025°13'10 9.8
2014-Jul-21 18:33N 37°19' E 025°01'10 9.6
2014-Jul-21 17:33N 37°21' E 024°49'1010.1
2014-Jul-21 16:31N 37°26' E 024°37'9 9.7
2014-Jul-21 15:33N 37°31' E 024°27'10 9.3
2014-Jul-21 14:30N 37°30' E 024°15'2010.2
2014-Jul-21 12:31N 37°37' E 023°51'10 9.8
2014-Jul-21 11:32N 37°42' E 023°41'1010.2
2014-Jul-21 10:34N 37°51' E 023°36'6 0.3
2014-Jul-20 12:33N 37°57' E 023°36'9 9.1
2014-Jul-20 11:32N 37°48' E 023°41'33 9.6
2014-Jul-20 08:07N 37°24' E 024°08'5 8.4
2014-Jul-20 07:30N 37°20' E 024°12'9 9.0
2014-Jul-20 06:31N 37°16' E 024°22'9 9.6
2014-Jul-20 05:33N 37°14' E 024°33'9 9.1
2014-Jul-20 04:33N 37°07' E 024°41'10 9.7
2014-Jul-20 03:33N 37°00' E 024°50'10 9.5
2014-Jul-20 02:32N 36°53' E 024°59'1010.4
2014-Jul-20 01:32N 36°51' E 025°11'1110.5
2014-Jul-20 00:32N 36°48' E 025°24'1010.0
2014-Jul-19 23:33N 36°46' E 025°36'1010.3
2014-Jul-19 22:33N 36°45' E 025°48'1010.3
2014-Jul-19 21:32N 36°45' E 026°01'10 9.6
2014-Jul-19 20:33N 36°46' E 026°13'  

Dump ship's entire track history